Погода в Сеготи

Россия / Ивановская область     57°05′06″N   43°00′51″E
темп.,
°C
ветер,
м/с
пор.,
м/с
влажн.,
%
обл.,
%
осадки,
мм/ч
давл.,
гПа
погр.,
м
10 августа, ср
ср1000:00+15ссз369899 0.0 1021227
03:00+15ссз3598100 0.0 1020260
06:00+16ссз3492100 0.0 1021250
09:00+18с3583100 0.1 1022419
12:00+19с3473100 0.0 1022542
15:00+22с3446100 0.0 10211392
18:00+21с475573 0.0 1021235
21:00+15ссз49737 0.0 1023159
11 августа, чт
чт1100:00+14ссз357921 0.0 102379
03:00+13с238668 0.0 102442
06:00+13ссз23840 0.0 1025121
09:00+18с34660 0.0 1025511
12:00+21ссв33540 0.0 10251121
15:00+22св23490 0.0 10241242
18:00+21вюв11560 0.0 102365
21:00+16зюз22680 0.0 102411
12 августа, пт
пт1200:00+15з236921 0.0 102419
03:00+14з3470100 0.0 102450
06:00+14з356968 0.0 102498
09:00+20з45545 0.0 1024373
12:00+23з454498 0.0 10231148
15:00+25з56417 0.0 10221309
18:00+23зюз355411 0.0 1021114
21:00+18з45655 0.0 102247
13 августа, сб
сб1300:00+17зсз46665 0.0 102278
03:00+16зсз3472100 0.0 102269
06:00+16зсз347689 0.0 102387
09:00+21ссз226354 0.0 1023350
12:00+24с2253100 0.0 10231018
15:00+25всв3351100 0.0 10221258
18:00+23всв1262100 0.0 102285
21:00+20всв2262100 0.0 102211
14 августа, вс
вс1400:00+17вюв3578100 0.0 102381
03:00+16юв347698 0.0 102360
06:00+17юв347571 0.0 1023111
09:00+21юв3562100 0.0 1023293
12:00+23юв455789 0.0 1022559
15:00+24ююв4556100 0.0 1021373
18:00+22юв3461100 0.0 102162
21:00+22юв4760100 0.0 1020130